Regional Weather Roundup
Issued by NWS Charleston, SC

Current Version | Previous Version | Graphics & Text | Print | Product List | Glossary On
Versions: 1 2 3 4 5 6 7 8 9 10 11 12 13 14 15 16 17 18 19 20 21 22 23 24 25 26 27 28 29 30 31 32 33 34 35 36 37 38 39 40 41 42 43 44 45 46 47 48 49 50
000
ASUS42 KCHS 181611
RWRCHS

REGIONAL WEATHER ROUNDUP
NATIONAL WEATHER SERVICE CHARLESTON SC
1200 PM EDT SAT APR 18 2015

NOTE: "FAIR" INDICATES FEW OR NO CLOUDS BELOW 12,000 FEET WITH NO
SIGNIFICANT WEATHER AND/OR OBSTRUCTIONS TO VISIBILITY.

NOT ALL STATIONS ARE QUALITY CONTROLLED BY THE NATIONAL
WEATHER SERVICE. USE DATA WITH CAUTION...ESPECIALLY
DEWPOINT OBSERVATIONS.

SCZ027-030-031-034>040-042>050-181700-
...SOUTHEAST SOUTH CAROLINA...

CITY           SKY/WX    TMP DP  RH WIND       PRES   REMARKS
N CHARLESTON   PTSUNNY   75  67  76 VRB5      29.99F
WATERFRONT PRK   N/A     75 N/A N/A CALM        N/A
MOUNT PLEASANT PTSUNNY   73  68  83 CALM      30.00F
PINOPOLIS      NOT AVBL
MONCKS CORNER  CLOUDY    73  66  78 N7        30.00S
SUMMERVILLE    CLOUDY    72  70  94 CALM      30.01F
BEAUFORT MCAS    N/A    N/A N/A N/A MISG      29.99S
BEAUFORT ARPT  PTSUNNY   73  70  88 CALM      29.99S
HILTON HEAD IS CLOUDY    72  70  94 SE6       30.01S
WALTERBORO     NOT AVBL
ALLENDALE      CLOUDY    70  68  94 CALM      29.99S

...SOUTHERN MIDLANDS AND PEE DEE...

CITY           SKY/WX    TMP DP  RH WIND       PRES   REMARKS
GEORGETOWN     NOT AVBL
KINGSTREE      NOT AVBL
ORANGEBURG     CLOUDY    72  65  78 NE6       30.00F
BARNWELL       RAIN      70  68  94 E5        30.01S
AIKEN          RAIN      68  63  83 CALM      30.04R
MANNING        LGT RAIN  70  64  83 NE3       30.01S
COLUMBIA       CLOUDY    72  64  76 CALM      30.00S
SUMTER         LGT RAIN  75  66  73 E8        29.99S
FLORENCE       CLOUDY    75  65  70 NE8       30.01S
MYRTLE BEACH   LGT RAIN  72  64  78 N9        30.03S
N MYRTLE BEACH CLOUDY    70  66  87 NE8       30.01R

$$

GAZ063-065-086>088-099>101-113>116-118-119-134>141-150-181700-
...SOUTHEAST GEORGIA...

CITY           SKY/WX    TMP DP  RH WIND       PRES   REMARKS
SAVANNAH ARPT  CLOUDY    73  67  81 SE8       29.99S
HUNTER AAF     CLOUDY    74  70  89 S5        29.97S
FORT STEWART   CLOUDY    72  68  88 S5        29.97S
STATESBORO       N/A     73  73 100 S5        29.99S
SYLVANIA       CLOUDY    73  70  92 CALM      30.00S
CLAXTON        CLOUDY    72  68  88 CALM      30.00R

...CSRA...CENTRAL AND FAR SOUTHEAST GEORGIA...

CITY           SKY/WX    TMP DP  RH WIND       PRES   REMARKS
THOMSON        CLOUDY    69  69 100 E6        30.05R
AUGUSTA-BUSH   LGT RAIN  68  66  93 E3        29.99S FOG
AUGUSTA-DANIEL RAIN      68  65  90 E7        30.00S FOG
SWAINSBORO     CLOUDY    73  68  83 S3        30.00R
VIDALIA        RAIN      73  70  88 S7        30.00R
EASTMAN        PTSUNNY   75  71  87 W6        30.02R
HAZLEHURST     CLOUDY    75  72  88 CALM      29.99S
ALMA           CLOUDY    73  69  87 W5        29.99R
WAYCROSS       CLOUDY    81  74  78 W7        29.99S
JESUP          CLOUDY    77  72  83 W7        29.99S
BAXLEY         CLOUDY    72  70  94 CALM      30.00R FOG
BRUNSWICK      PTSUNNY   77  68  73 SW7       30.00R
SAINT SIMONS   LGT RAIN  72  71  97 S7        29.99S FOG

$$

SCZ027-028-034-036>038-045-046-048>050-GAZ119-141-181700-
...LAKE AND SUPPLEMENTAL COASTAL OBSERVATIONS...

STATION/POSITION TIME  TEMP    WIND        PRES    WAVE   SWELL
                       AIR SEA DIR/SP/G            HT/PER HT/PER/DIR
                 (UTC) (F)     (DEG/KT/KT) (MB)    (FT/S) (FT/S/D)
UPR LAKE MARION  NOT AVBL
WINYAH BAY       1445   70     360/  4     1015.0
LAKE MURRAY      1500   67      40/  2/  7 1015.9R
ACE BASIN NERRS  NOT AVBL
FORT PULASKI     1500   69 71   80/  7/  8 1016.2S
SAPELO ISLAND    NOT AVBL

$$

ANZ835-935-AMZ111-154-330-350-352-354-370-450-454-472-181700-
...C-MAN AND BUOY OBSERVATIONS...

STATION/POSITION TIME  TEMP    WIND        PRES    WAVE   SWELL
                       AIR SEA DIR/SP/G            HT/PER HT/PER/DIR
                 (UTC) (F)     (DEG/KT/KT) (MB)    (FT/S) (FT/S/D)
BUOY 41004       1550   70 74   10/ 10/ 12 1015.4R   4/ 8   3/ 8
BUOY 41008       1550   68 68  130/  4/  4 1015.7F   2/ 9   2/ 80/ 9
FOLLY BEACH CMAN 1600   68      80/  3/  4 1015.8F
CAPERS NEARSHORE NOT AVBL
FRIPP NEARSHORE  1500   70      50/  2/  4 1015.8R


STATION/POSITION TIME  TEMP    WIND        PRES    WAVE   SWELL
                       AIR SEA DIR/SP/G            HT/PER HT/PER/DIR
                 (UTC) (F)     (DEG/KT/KT) (MB)    (FT/S) (FT/S/D)
5E ST. MARYS GA  1521      71                N/A     2/10   2/ 90/11
FRYING PAN BUOY  1550   71 73   90/ 12/ 14 1016.0R   4/ 8   3/120/ 8
BUOY 41025       1550   71 75   30/  6/  8 1015.9R   5/11   5/ 80/11
CAPE LOOKOUT NC  1600   69      20/  4/  5 1015.4F
BUOY 41002       1550   73 74  260/  8/ 10 1014.8S   5/11   5/ 40/11
BUOY 41010       1520   79 79  210/  8/ 10 1015.8R
ST AUGUSTINE FL  1600   72 70   80/  4/  5 1016.4R


$$


USA.gov is the U.S. government's official web portal to all federal, state and local government web resources and services.